GSAT-11

Last updated on Sun Jun 21 2026 00:03:07 GMT+0000 (Coordinated Universal Time)

1 43824U 18100B 26171.40667204 -.00000082 00000+0 00000+0 0 9996 2 43824 0.0485 257.0358 0007812 192.2265 39.7563 1.00272475 27511
UTC large
Height (km)
Speed (km/s)
/
Latitude / Longitude
Inclination (degrees)
Orbital Period (minutes)
Azimuth
Elevation
Range (km)
Doppler Factor

Next 0 passes for location: London (51.5072 / 0.1276)

No passes found over London.
GSAT-11